Location: Beddau
(51.5575°N, 3.3561°W)
Time: 12:31:39
(UTC+00:00)

Cosmos 1470 Rocket - Pass Details

Date: 03 March 2021
Orbit: 603 x 634 km, 82.5° (Epoch: 16 April)

Event Time Altitude Azimuth Distance (km) Brightness Sun altitude
Rises 18:36:20 0° 167° (SSE) 2,918 6.9 -6.8°
Reaches altitude 10° 18:38:41 10° 159° (SSE) 2,013 6.0 -7.2°
Maximum altitude 18:42:48 38° 92° (E) 970 4.1 -7.8°
Drops below altitude 10° 18:46:56 10° 24° (NNE) 2,016 6.0 -8.5°
Sets 18:49:17 0° 17° (NNE) 2,923 6.9 -8.8°
